STARLINK-30445, 57873

Orbit data source: Space-Track

STARLINK-30445, 57873 is a payload satellite owned by SpaceX/Seattle (US) in LEO that was launched on Sat, 16 Sep 2023 UTC via an FALCON 9 launch vehicle from the Air Force Eastern Test Range (AFETR). Payload-class satellites include a variety of spacecraft equipped with specific instruments for various scientific and technological missions. These include communications satellites like Starlink; space stations such as the ISS; scientific satellites like the Hubble; Earth observation satellites from companies like Planet Labs, Umbra, and HawkEye 360; GPS; miniature CubeSats for education and research; and military/defense satellites.

Loading next visibility...
Identifier
57873, 2023-144K
Orbit
LEO
Country
Flag of USUS
Related business
Manufacturer
SpaceX/Seattle
Mission
Operational Commercial Communications
Bus & Motor
STARLINK V2M, Unknown motor
Mass
730 kg wet, ~700 kg dry
Launch date (UTC)
2023-09-16 (2 years ago)
Launch vehicle
FALCON 9
Launch site
Air Force Eastern Test Range (AFETR)
Object type
Payload
Rocket body
Debris
Shape & HBR
Box + 2 Pan, 17.7 m
Radar Cross Section
33.884 m², Large (>1 m²)

Expand to show TLE details & history
Last TLE update: 19 hours ago

TLE from 19 hours ago
0 STARLINK-30445
1 57873U 23144K   25348.83398185  .00000241  00000-0  32915-4 0  9992
2 57873  43.0045  28.7803 0001047 282.3208  77.7517 15.02526679124805
Epoch: 2025-12-14T20:00Z
TLE epoch observation values (Epoch: 2025-12-14T20:00:56.031Z)
Latitude
-0.00004°
Longitude
4.80557°
Altitude
558.733 km
Speed
7.584 km/s
True Right ascension
01h 55m 07s
True Declination
0° 00' 00"
Sunlit
Object was in full shadow at epoch
Visualization orbit readout
Latitude
Unknown
Longitude
Unknown
Altitude
Unknown
Speed
Unknown
Apparent Right ascension
Unknown
Apparent Declination
Unknown
Sunlit
N/A
Visualization observer readout
Local Sidereal Time
13:24:36
Azimuth
Unknown
Elevation
Unknown
Doppler factor
Unknown
Orbital elements
Apogee altitude
561.758 km
Perigee altitude
560.305 km
Semi-major axis
6,939.168 km
Eccentricity
0.0001
Inclination
43.0045°
RAAN
28.7803°
Arg. of periapsis
282.3208°
True anomaly
77.76342°
Mean anomaly
77.7517°
Eccentric anomaly
77.75756°
Mean motion
3.75476 °/min
Orbital period
95.88 mins
BSTAR
0.000032915
Loading maneuver chart data...
Computing Atmospheric mass density...
Loading historical data...
Loading historical data...
Loading historical data...
Loading historical data...
Loading historical data...
Loading historical data...
Loading historical data...

Documentation

Showing up to 5 results
|